Weather in Lenzerheide

Switzerland     46°43′34″N   9°33′27″E
temp.,
°C
wind,
m/s
gust,
m/s
humid.,
%
clouds,
%
prec.,
mm/h
press.,
hPa
HPBL,
m
8 may, sat
sat823:00−2se0190100 0.0 1024132
02:00−6sse3294100 0.0 102629
05:00−6sse328963 0.0 102629
08:000s22746 0.0 1022134
11:00+7ssw2356100 0.0 1017785
14:00+10sse225584 0.0 10161314
17:00+11se2261100 0.0 10161089
20:00+5sse3387100 0.0 101856
9 may, sun
sun923:00+2s348847 0.0 102158
02:00+2s459015 0.0 102185
05:00+1s458990 0.0 102075
08:00+6s468015 0.0 1017236
11:00+11s466353 0.0 1015711
14:00+14s565287 0.0 10131155
17:00+14s565352 0.0 10121359
20:00+8s4778100 0.0 1015283
10 may, mon
mon1023:00+6s588936 0.0 1017250
02:00+5s589418 0.0 1016235
05:00+6s588623 0.0 1015296
08:00+8s588076 0.0 1013454
11:00+12s676472 0.2 1012978
14:00+9s5780100 2.5 1014715
17:00+11sse5772100 1.6 1012773
20:00+6sse4791100 4.9 1012335
11 may, tue
tue1123:00+5s479259 5.1 1014274
02:00+5sse3694100 7.9 1013289
05:00+5sse3495100 6.6 1011201
08:00+6s3592100 10.2 1009316
11:00+6ssw3592100 3.8 1009395
14:00+5ssw2393100 9.5 1009388
17:00+5ssw3494100 3.8 1008383
20:00+4sw1297100 6.3 1008194
12 may, wed
wed1223:00+3nw2299100 1.8 1009223
02:00+2nnw34100100 5.3 1010305
05:00+1n24100100 4.4 1012186
08:000n34100100 7.1 1013152
11:00+1nne34100100 1.5 1013225
14:00+2n34100100 2.1 1013254
17:00+1nne23100100 1.1 1013237
20:00+1nne22100100 2.0 1014134